Location: Feydey
(46.3431°N, 7.0106°E)
Time: 23:23:54
(UTC+00:00)

Cosmos 1892 Rocket - Pass Details

Date: 20 June 2021
Orbit: 606 x 633 km, 82.5° (Epoch: 23 July)

Event Time Altitude Azimuth Distance (km) Brightness Sun altitude
Exits shadow 21:43:57 27° 134° (SE) 1,201 4.5 -15.9°
Maximum altitude 21:45:34 37° 91° (E) 980 4.3 -16.0°
Drops below altitude 10° 21:49:41 10° 25° (NNE) 2,017 6.7 -16.3°
Sets 21:52:03 0° 17° (NNE) 2,933 7.8 -16.5°
